Sidney, NE

3:21 PM MST on December 07, 2016 (GMT -0700)
Sidney Municipal

Weather History for KSNY - December, 2012

Change the Weather History Date:

Saturday, December 8, 2012

  Actual Average Record
Temperature  
Mean Temperature 35 °F 29 °F  
Max Temperature 48 °F 42 °F 63 °F (2006)
Min Temperature 21 °F 17 °F -17 °F (1972)
Degree Days  
Heating Degree Days 30 36  
Month to date heating degree days 197 280  
Since 1 July heating degree days 1605 1702  
Cooling Degree Days 0 0  
Month to date cooling degree days 0 0  
Year to date cooling degree days 1165 830  
Moisture  
Dew Point 19 °F    
Average Humidity 51    
Maximum Humidity 78    
Minimum Humidity 23    
Precipitation  
Precipitation T in 0.02 in 0.29 in (1953)
Month to date precipitation T 0.16  
Year to date precipitation 7.06 18.16  
Sea Level Pressure  
Sea Level Pressure 29.82 in    
Wind  
Wind Speed 19 mph (West)    
Max Wind Speed 38 mph    
Max Gust Speed 47 mph    
Visibility 10 miles    
Events Rain    
T = Trace of Precipitation, MM = Missing Value Source: NWS Daily Summary

Daily Weather History Graph

Daily Weather History Graph

Search for Another Location

Airport or City:

Trip Planner

Search our weather history database for the weather conditions in past years. The results will help you decide how hot, cold, wet, or windy it might be!

Date:

Astronomy

Dec. 08, 2012 Rise Set
Actual Time 7:04 AM MST 4:23 PM MST
Civil Twilight 6:33 AM MST 4:54 PM MST
Nautical Twilight 5:59 AM MST 5:28 PM MST
Astronomical Twilight 5:26 AM MST 6:02 PM MST
Moon 1:29 AM MST (12/8) 12:56 PM MST (12/8)
Length of Visible Light 10h 20m
Length of Day
9h 18m
Waning Crescent, 27% of the Moon is Illuminated
Dec 8
Waning Crescent
Dec 13
New
Dec 19
First Quarter
Dec 28
Full
Jan 4
Last Quarter

Hourly Weather History & Observations

Time (MST) Temp. Windchill Dew Point Humidity Pressure Visibility Wind Dir Wind Speed Gust Speed Precip Events Conditions
12:53 AM 28.0 °F 20.8 °F 21.0 °F 75% 29.91 in 10.0 mi South 6.9 mph - N/A   Mostly Cloudy
1:53 AM 30.0 °F 21.7 °F 21.0 °F 69% 29.88 in 10.0 mi SSW 9.2 mph - N/A   Overcast
2:53 AM 30.0 °F 23.2 °F 21.0 °F 69% 29.88 in 10.0 mi SSW 6.9 mph - N/A   Overcast
3:53 AM 28.9 °F 21.9 °F 19.9 °F 69% 29.88 in 10.0 mi SW 6.9 mph - N/A   Overcast
4:53 AM 30.9 °F 22.8 °F 24.1 °F 76% 29.84 in 10.0 mi SSW 9.2 mph - N/A   Partly Cloudy
5:53 AM 32.0 °F 19.8 °F 24.1 °F 73% 29.81 in 10.0 mi SSW 20.7 mph - N/A   Partly Cloudy
6:53 AM 32.0 °F 20.8 °F 21.9 °F 66% 29.81 in 10.0 mi SSW 17.3 mph 26.5 mph N/A   Overcast
7:53 AM 33.1 °F 21.2 °F 19.9 °F 59% 29.80 in 10.0 mi SSW 20.7 mph - N/A   Overcast
8:53 AM 35.1 °F 23.3 °F 19.9 °F 54% 29.82 in 10.0 mi SSW 23.0 mph 35.7 mph N/A   Overcast
9:53 AM 36.0 °F 24.4 °F 19.9 °F 52% 29.80 in 10.0 mi SSW 23.0 mph 32.2 mph N/A   Mostly Cloudy
10:53 AM 43.0 °F 35.1 °F 21.0 °F 42% 29.75 in 10.0 mi SSW 17.3 mph 24.2 mph N/A   Clear
11:44 AM 39.2 °F 27.8 °F 28.4 °F 65% 29.72 in 6.0 mi WNW 27.6 mph 41.4 mph 0.00 in Rain Light Rain
11:53 AM 39.0 °F 28.8 °F 30.9 °F 73% 29.79 in 7.0 mi WNW 21.9 mph 33.4 mph 0.00 in   Unknown
12:53 PM 45.0 °F 35.8 °F 14.0 °F 29% 29.68 in 10.0 mi WNW 26.5 mph 38.0 mph 0.00 in   Mostly Cloudy
1:53 PM 46.0 °F 36.2 °F 10.0 °F 23% 29.67 in 10.0 mi WNW 33.4 mph 43.7 mph N/A   Clear
2:53 PM 43.0 °F 32.7 °F 12.9 °F 30% 29.68 in 10.0 mi WNW 28.8 mph 40.3 mph N/A   Mostly Cloudy
3:53 PM 42.1 °F 31.1 °F 12.9 °F 31% 29.71 in 10.0 mi WNW 31.1 mph 38.0 mph N/A   Overcast
4:53 PM 39.9 °F 30.5 °F 14.0 °F 35% 29.73 in 10.0 mi WNW 19.6 mph 39.1 mph N/A   Overcast
6:53 PM 30.0 °F 18.3 °F 19.9 °F 66% 29.85 in 10.0 mi NNW 17.3 mph - N/A   Overcast
7:53 PM 28.9 °F 18.6 °F 18.0 °F 64% 29.89 in 10.0 mi NNW 12.7 mph 23.0 mph N/A   Mostly Cloudy
8:53 PM 28.0 °F 16.1 °F 18.0 °F 66% 29.92 in 10.0 mi NNW 16.1 mph 21.9 mph N/A   Mostly Cloudy
9:53 PM 27.0 °F 12.5 °F 15.1 °F 61% 29.96 in 10.0 mi NNW 23.0 mph 33.4 mph N/A   Partly Cloudy
10:53 PM 21.9 °F 6.5 °F 10.0 °F 60% 29.98 in 10.0 mi NNW 20.7 mph 29.9 mph N/A   Clear
11:53 PM 21.0 °F 7.1 °F 7.0 °F 55% 30.02 in 10.0 mi NW 16.1 mph - N/A   Clear